Williston, ND

12:51 PM CDT on August 19, 2017 (GMT -0500)
Sloulin International

Weather History for KISN - May, 2013

Change the Weather History Date:

Friday, May 3, 2013

  Actual Average Record
Temperature  
Mean Temperature 49 °F 50 °F  
Max Temperature 64 °F 64 °F 90 °F (1952)
Min Temperature 34 °F 36 °F 10 °F (2005)
Degree Days  
Heating Degree Days 16 15  
Month to date heating degree days 72 46  
Since 1 July heating degree days 9017 8571  
Cooling Degree Days 0 0  
Month to date cooling degree days 0 0  
Year to date cooling degree days 0 1  
Moisture  
Dew Point 22 °F    
Average Humidity 41    
Maximum Humidity 61    
Minimum Humidity 20    
Precipitation  
Precipitation 0.00 in 0.05 in 0.85 in (1919)
Month to date precipitation 0.00 0.15  
Year to date precipitation 2.82 2.84  
Snow  
Snow 0.00 in - - ()
Month to date snowfall 0.0  
Snow Depth 0.00 in    
Sea Level Pressure  
Sea Level Pressure 30.29 in    
Wind  
Wind Speed 9 mph (SE)    
Max Wind Speed 21 mph    
Max Gust Speed 26 mph    
Visibility 10 miles    
Events      
T = Trace of Precipitation, MM = Missing Value Source: NWS Daily Summary

Daily Weather History Graph

Daily Weather History Graph

Search for Another Location

Airport or City:

Trip Planner

Search our weather history database for the weather conditions in past years. The results will help you decide how hot, cold, wet, or windy it might be!

Date:

Astronomy

May. 03, 2013 Rise Set
Actual Time 6:32 AM CDT 9:11 PM CDT
Civil Twilight 5:56 AM CDT 9:46 PM CDT
Nautical Twilight 5:12 AM CDT 10:31 PM CDT
Astronomical Twilight 4:19 AM CDT 11:24 PM CDT
Moon 3:27 AM CDT (5/3) 2:41 PM CDT (5/3)
Length of Visible Light 15h 50m
Length of Day
14h 39m
Last Quarter, 37% of the Moon is Illuminated
May 3
Last Quarter
May 9
New
May 17
First Quarter
May 24
Full
May 31
Last Quarter

Hourly Weather History & Observations

Time (CDT) Temp. Windchill Dew Point Humidity Pressure Visibility Wind Dir Wind Speed Gust Speed Precip Events Conditions
12:52 AM 42.1 °F 36.1 °F 21.0 °F 43% 30.42 in 10.0 mi SE 10.4 mph - N/A   Clear
1:52 AM 39.9 °F 35.1 °F 21.0 °F 47% 30.41 in 10.0 mi SSE 6.9 mph - N/A   Clear
2:52 AM 39.0 °F 33.4 °F 21.9 °F 50% 30.39 in 10.0 mi South 8.1 mph - N/A   Clear
3:52 AM 37.9 °F 32.7 °F 21.9 °F 53% 30.38 in 10.0 mi South 6.9 mph - N/A   Clear
4:52 AM 37.0 °F 29.3 °F 21.0 °F 52% 30.37 in 10.0 mi SSE 11.5 mph 16.1 mph N/A   Clear
5:52 AM 35.1 °F 31.0 °F 19.9 °F 54% 30.37 in 10.0 mi South 4.6 mph - N/A   Clear
6:52 AM 34.0 °F 29.8 °F 21.0 °F 59% 30.36 in 10.0 mi South 4.6 mph - N/A   Clear
7:52 AM 37.0 °F 32.4 °F 21.0 °F 52% 30.35 in 10.0 mi South 5.8 mph - N/A   Clear
8:52 AM 41.0 °F 37.1 °F 21.9 °F 47% 30.35 in 10.0 mi SSE 5.8 mph - N/A   Clear
9:52 AM 44.1 °F 39.5 °F 23.0 °F 43% 30.33 in 10.0 mi SE 8.1 mph - N/A   Clear
10:52 AM 48.9 °F - 24.1 °F 38% 30.30 in 10.0 mi Variable 6.9 mph - N/A   Clear
11:52 AM 54.0 °F - 25.0 °F 33% 30.27 in 10.0 mi SE 9.2 mph - N/A   Clear
12:52 PM 57.9 °F - 23.0 °F 26% 30.25 in 10.0 mi South 11.5 mph 20.7 mph N/A   Clear
1:52 PM 60.1 °F - 21.0 °F 22% 30.24 in 10.0 mi South 11.5 mph - N/A   Clear
2:52 PM 62.1 °F - 21.9 °F 21% 30.22 in 10.0 mi SE 15.0 mph 20.7 mph N/A   Clear
3:52 PM 62.1 °F - 21.9 °F 21% 30.20 in 10.0 mi ESE 12.7 mph 16.1 mph N/A   Clear
4:52 PM 63.0 °F - 23.0 °F 22% 30.19 in 10.0 mi SE 9.2 mph 18.4 mph N/A   Clear
5:52 PM 63.0 °F - 23.0 °F 22% 30.19 in 10.0 mi SE 6.9 mph - N/A   Clear
6:52 PM 61.0 °F - 23.0 °F 23% 30.19 in 10.0 mi East 13.8 mph - N/A   Clear
7:52 PM 57.9 °F - 23.0 °F 26% 30.20 in 10.0 mi East 15.0 mph 26.5 mph N/A   Clear
8:52 PM 53.1 °F - 25.0 °F 34% 30.23 in 10.0 mi East 10.4 mph - N/A   Clear
9:52 PM 50.0 °F - 24.1 °F 36% 30.25 in 10.0 mi East 10.4 mph - N/A   Clear
10:52 PM 48.9 °F - 23.0 °F 36% 30.26 in 10.0 mi East 8.1 mph - N/A   Clear
11:52 PM 46.9 °F - 23.0 °F 39% 30.27 in 10.0 mi ESE 10.4 mph 16.1 mph N/A   Clear